ENT1FA EPKT-EDDH

Flight info

Callsign ENT1FA
Flight time N/A
Altitude 30000
Route SUDOL L619 NUDRO T710 SUBIX DCT VIBIS L619 BUMIL/N0386F240 M748 RARUP RARUP6A
Aircraft B738/M-VOLDFGIRWYHJ1X/EB1

Departure

Time 2026-04-29 17:30
Airport Katowice Wojciech Korfanty International Airport (EPKT)

Arrival

Time N/A
Airport Hamburg Helmut Schmidt Airport (EDDH)
Time Latitude Longitude Altitude Speed Heading
2026-04-29 16:56 50.47170 19.07212 986 ft 0 kts 180°
2026-04-29 17:23 50.47182 19.07212 988 ft 4 kts 180°
2026-04-29 17:24 50.47196 19.07212 989 ft 4 kts 182°
2026-04-29 17:24 50.47221 19.07220 993 ft 4 kts 213°
2026-04-29 17:24 50.47235 19.07249 993 ft 4 kts 263°
2026-04-29 17:24 50.47236 19.07259 991 ft 1 kts 270°
2026-04-29 17:26 50.47236 19.07257 991 ft 1 kts 270°
2026-04-29 17:27 50.47236 19.07217 991 ft 7 kts 269°
2026-04-29 17:27 50.47234 19.07099 986 ft 14 kts 269°
2026-04-29 17:27 50.47234 19.06914 988 ft 20 kts 270°
2026-04-29 17:27 50.47244 19.06675 987 ft 23 kts 299°
2026-04-29 17:28 50.47388 19.06619 987 ft 22 kts 344°
2026-04-29 17:28 50.47429 19.06410 986 ft 21 kts 270°
2026-04-29 17:28 50.47430 19.06179 986 ft 21 kts 270°
2026-04-29 17:28 50.47476 19.05989 990 ft 20 kts 339°
2026-04-29 17:29 50.47572 19.05991 984 ft 14 kts 16°
2026-04-29 17:29 50.47607 19.06094 981 ft 0 kts 89°
2026-04-29 17:29 50.47607 19.06172 982 ft 31 kts 89°
2026-04-29 17:30 50.47606 19.06909 991 ft 102 kts 90°
2026-04-29 17:30 50.47619 19.08349 1004 ft 159 kts 84°
2026-04-29 17:30 50.47641 19.10241 1470 ft 182 kts 87°
2026-04-29 17:30 50.47614 19.12298 2352 ft 194 kts 89°
2026-04-29 17:31 50.47581 19.14501 2805 ft 214 kts 88°
2026-04-29 17:31 50.47557 19.16947 3144 ft 231 kts 88°
2026-04-29 17:31 50.47805 19.19423 3759 ft 231 kts 62°
2026-04-29 17:31 50.48821 19.21278 4455 ft 229 kts 31°
2026-04-29 17:32 50.50296 19.22167 5259 ft 230 kts
2026-04-29 17:32 50.51903 19.22311 6122 ft 232 kts
2026-04-29 17:32 50.53516 19.22289 7022 ft 233 kts 359°
2026-04-29 17:32 50.55145 19.22257 7836 ft 236 kts 359°
2026-04-29 17:33 50.56793 19.22240 8653 ft 238 kts 359°
2026-04-29 17:33 50.58461 19.22238 9477 ft 241 kts 359°
2026-04-29 17:33 50.60151 19.22242 10306 ft 244 kts 359°
2026-04-29 17:33 50.61858 19.22248 11065 ft 246 kts 359°
2026-04-29 17:34 50.63553 19.21882 11798 ft 249 kts 338°
2026-04-29 17:34 50.64962 19.20343 12537 ft 256 kts 313°
2026-04-29 17:34 50.65841 19.17872 13263 ft 266 kts 289°
2026-04-29 17:34 50.66060 19.14926 13982 ft 275 kts 276°
2026-04-29 17:35 50.66114 19.09836 15049 ft 283 kts 275°
2026-04-29 17:35 50.66110 19.05578 15595 ft 304 kts 273°
2026-04-29 17:35 50.66073 19.02125 15767 ft 326 kts 273°
2026-04-29 17:36 50.66028 18.98442 15927 ft 347 kts 273°
2026-04-29 17:36 50.65981 18.94525 16120 ft 366 kts 272°
2026-04-29 17:36 50.65934 18.90520 16586 ft 375 kts 272°
2026-04-29 17:36 50.65888 18.86372 17194 ft 380 kts 272°
2026-04-29 17:37 50.65842 18.82192 17853 ft 384 kts 272°
2026-04-29 17:37 50.65796 18.77961 18478 ft 389 kts 272°
2026-04-29 17:37 50.65748 18.73675 19026 ft 394 kts 272°
2026-04-29 17:37 50.65698 18.69339 19579 ft 397 kts 272°
2026-04-29 17:38 50.65646 18.64976 20190 ft 399 kts 273°
2026-04-29 17:38 50.65593 18.60595 20774 ft 402 kts 273°
2026-04-29 17:38 50.65538 18.56176 21341 ft 405 kts 273°
2026-04-29 17:38 50.65481 18.51782 21853 ft 409 kts 273°
2026-04-29 17:39 50.65425 18.47288 22403 ft 411 kts 274°
2026-04-29 17:39 50.65727 18.42846 22932 ft 406 kts 288°
2026-04-29 17:39 50.66634 18.38661 23498 ft 402 kts 300°
2026-04-29 17:39 50.68055 18.34904 23991 ft 398 kts 311°
2026-04-29 17:40 50.69719 18.31402 24438 ft 400 kts 311°
2026-04-29 17:40 50.71385 18.27886 24894 ft 401 kts 310°
2026-04-29 17:40 50.73036 18.24320 25340 ft 403 kts 310°
2026-04-29 17:40 50.74671 18.20776 25754 ft 406 kts 311°
2026-04-29 17:41 50.76373 18.17210 26150 ft 407 kts 311°
2026-04-29 17:41 50.78098 18.13647 26559 ft 409 kts 311°
2026-04-29 17:41 50.79834 18.10068 26982 ft 411 kts 311°
2026-04-29 17:41 50.81568 18.06482 27471 ft 410 kts 311°
2026-04-29 17:42 50.83293 18.02900 28043 ft 408 kts 311°
2026-04-29 17:42 50.85002 17.99335 28615 ft 406 kts 311°
2026-04-29 17:42 50.86703 17.95780 29118 ft 405 kts 311°
2026-04-29 17:42 50.88406 17.92213 29540 ft 406 kts 311°
2026-04-29 17:43 50.90085 17.88690 30007 ft 406 kts 311°
2026-04-29 17:43 50.91784 17.85121 30423 ft 406 kts 311°
2026-04-29 17:43 50.93496 17.81520 30397 ft 410 kts 311°
2026-04-29 17:44 50.96921 17.74297 30402 ft 407 kts 312°
2026-04-29 17:44 51.00310 17.67126 30427 ft 407 kts 312°
2026-04-29 17:45 51.03703 17.59952 30421 ft 410 kts 312°
2026-04-29 17:45 51.07133 17.52680 30427 ft 412 kts 312°
2026-04-29 17:46 51.10574 17.45361 30417 ft 414 kts 313°
2026-04-29 17:46 51.14018 17.38012 30426 ft 414 kts 313°
2026-04-29 17:47 51.17453 17.30659 30426 ft 413 kts 313°
2026-04-29 17:47 51.20876 17.23310 30427 ft 412 kts 314°
2026-04-29 17:48 51.24288 17.15968 30425 ft 411 kts 314°
2026-04-29 17:48 51.27663 17.08684 30436 ft 411 kts 314°
2026-04-29 17:49 51.31059 17.01336 30425 ft 411 kts 314°
2026-04-29 17:49 51.34452 16.93973 30435 ft 412 kts 314°
2026-04-29 17:50 51.37849 16.86582 30423 ft 413 kts 314°
2026-04-29 17:50 51.41243 16.79174 30436 ft 413 kts 315°
2026-04-29 17:51 51.44636 16.71746 30427 ft 413 kts 315°
2026-04-29 17:51 51.48006 16.64348 30430 ft 413 kts 315°
2026-04-29 17:52 51.51390 16.56897 30427 ft 413 kts 315°
2026-04-29 17:52 51.54523 16.49085 30442 ft 421 kts 308°
2026-04-29 17:53 51.57278 16.40745 30429 ft 423 kts 307°
2026-04-29 17:53 51.60006 16.32358 30436 ft 423 kts 307°
2026-04-29 17:54 51.62760 16.23993 30428 ft 423 kts 308°
2026-04-29 17:54 51.65510 16.15693 30431 ft 423 kts 308°
2026-04-29 17:55 51.68287 16.07316 30434 ft 424 kts 308°
2026-04-29 17:55 51.71062 15.98918 30430 ft 425 kts 308°
2026-04-29 17:56 51.73835 15.90495 30445 ft 425 kts 308°
2026-04-29 17:56 51.76606 15.82047 30435 ft 426 kts 308°
2026-04-29 17:57 51.79353 15.73641 30433 ft 426 kts 308°
2026-04-29 17:57 51.82116 15.65162 30442 ft 426 kts 309°
2026-04-29 17:58 51.84872 15.56671 30438 ft 427 kts 308°
2026-04-29 17:58 51.87626 15.48159 30437 ft 427 kts 309°
2026-04-29 17:59 51.90376 15.39631 30438 ft 427 kts 309°
2026-04-29 17:59 51.93122 15.31084 30436 ft 428 kts 309°
2026-04-29 18:00 51.95867 15.22514 30438 ft 429 kts 309°
2026-04-29 18:00 51.98591 15.13981 30435 ft 430 kts 309°
2026-04-29 18:01 52.01333 15.05358 30428 ft 430 kts 309°
2026-04-29 18:01 52.04072 14.96712 30434 ft 431 kts 309°
2026-04-29 18:02 52.06806 14.88050 30434 ft 431 kts 309°
2026-04-29 18:02 52.09536 14.79373 30436 ft 432 kts 309°
2026-04-29 18:03 52.12266 14.70668 30431 ft 432 kts 309°
2026-04-29 18:03 52.14973 14.62002 30422 ft 432 kts 309°
2026-04-29 18:04 52.17692 14.53263 30423 ft 432 kts 308°
2026-04-29 18:04 52.20402 14.44524 30431 ft 432 kts 308°
2026-04-29 18:05 52.23106 14.35773 30428 ft 432 kts 308°
2026-04-29 18:05 52.25800 14.27021 30423 ft 431 kts 308°
2026-04-29 18:06 52.28464 14.18338 30431 ft 431 kts 308°
2026-04-29 18:06 52.31140 14.09587 30417 ft 430 kts 308°
2026-04-29 18:07 52.33808 14.00828 30429 ft 430 kts 307°
2026-04-29 18:07 52.36470 13.92056 30427 ft 430 kts 307°
2026-04-29 18:08 52.39108 13.83332 30439 ft 430 kts 307°
2026-04-29 18:08 52.41756 13.74544 30443 ft 431 kts 307°
2026-04-29 18:09 52.44400 13.65736 30446 ft 431 kts 307°
2026-04-29 18:09 52.47040 13.56912 30446 ft 431 kts 307°
2026-04-29 18:10 52.49677 13.48061 30447 ft 432 kts 307°
2026-04-29 18:10 52.52306 13.39205 30443 ft 432 kts 307°
2026-04-29 18:11 52.54915 13.30385 30441 ft 432 kts 307°
2026-04-29 18:11 52.57531 13.21505 30437 ft 432 kts 306°
2026-04-29 18:12 52.60144 13.12605 30435 ft 432 kts 306°
2026-04-29 18:12 52.62748 13.03700 30431 ft 432 kts 306°
2026-04-29 18:13 52.65345 12.94788 30437 ft 432 kts 306°
2026-04-29 18:13 52.67935 12.85864 30438 ft 432 kts 306°
2026-04-29 18:14 52.70499 12.77002 30439 ft 432 kts 306°
2026-04-29 18:14 52.73075 12.68060 30442 ft 432 kts 306°
2026-04-29 18:15 52.75649 12.59096 30235 ft 435 kts 305°
2026-04-29 18:15 52.76949 12.54567 29610 ft 437 kts 305°
2026-04-29 18:15 52.78242 12.50035 29063 ft 434 kts 305°
2026-04-29 18:15 52.79520 12.45538 28517 ft 431 kts 304°
2026-04-29 18:16 52.80795 12.41050 27981 ft 431 kts 304°
2026-04-29 18:16 52.82050 12.36630 27475 ft 431 kts 304°
2026-04-29 18:16 52.83320 12.32152 26954 ft 430 kts 304°
2026-04-29 18:16 52.84588 12.27672 26446 ft 430 kts 304°
2026-04-29 18:17 52.85821 12.23157 25950 ft 432 kts 301°
2026-04-29 18:17 52.86947 12.18543 25460 ft 432 kts 300°
2026-04-29 18:17 52.88012 12.13898 24976 ft 429 kts 299°
2026-04-29 18:17 52.89048 12.09286 24496 ft 426 kts 298°
2026-04-29 18:18 52.90075 12.04716 24029 ft 422 kts 298°
2026-04-29 18:18 52.91100 12.00188 23469 ft 418 kts 298°
2026-04-29 18:18 52.92122 11.95710 22938 ft 414 kts 298°
2026-04-29 18:18 52.93140 11.91271 22399 ft 411 kts 298°
2026-04-29 18:19 52.94140 11.86922 21876 ft 407 kts 298°
2026-04-29 18:19 52.95145 11.82550 21361 ft 404 kts 298°
2026-04-29 18:19 52.96142 11.78210 20852 ft 401 kts 298°
2026-04-29 18:19 52.97131 11.73899 20356 ft 398 kts 298°
2026-04-29 18:20 52.98111 11.69617 19866 ft 396 kts 297°
2026-04-29 18:20 52.99083 11.65361 19384 ft 393 kts 297°
2026-04-29 18:20 53.00047 11.61130 18987 ft 389 kts 297°
2026-04-29 18:20 53.00994 11.56957 18610 ft 384 kts 297°
2026-04-29 18:21 53.01928 11.52838 18202 ft 379 kts 297°
2026-04-29 18:21 53.02849 11.48766 17802 ft 374 kts 297°
2026-04-29 18:21 53.03757 11.44748 17454 ft 369 kts 297°
2026-04-29 18:21 53.04649 11.40790 17107 ft 363 kts 297°
2026-04-29 18:22 53.05517 11.36932 16776 ft 359 kts 297°
2026-04-29 18:22 53.06385 11.33074 16431 ft 354 kts 297°
2026-04-29 18:22 53.07240 11.29261 16096 ft 350 kts 297°
2026-04-29 18:22 53.08086 11.25487 15763 ft 346 kts 297°
2026-04-29 18:23 53.08922 11.21749 15444 ft 343 kts 296°
2026-04-29 18:23 53.09747 11.18055 15126 ft 339 kts 296°
2026-04-29 18:23 53.10565 11.14386 14807 ft 336 kts 296°
2026-04-29 18:23 53.11374 11.10749 14491 ft 333 kts 296°
2026-04-29 18:24 53.12174 11.07147 14174 ft 331 kts 296°
2026-04-29 18:24 53.12966 11.03571 13821 ft 328 kts 296°
2026-04-29 18:24 53.13751 11.00023 13474 ft 325 kts 296°
2026-04-29 18:24 53.14530 10.96496 13131 ft 323 kts 296°
2026-04-29 18:25 53.15303 10.92995 12793 ft 321 kts 295°
2026-04-29 18:25 53.16059 10.89561 12455 ft 319 kts 295°
2026-04-29 18:25 53.16819 10.86099 12122 ft 317 kts 295°
2026-04-29 18:25 53.17573 10.82663 11791 ft 315 kts 295°
2026-04-29 18:26 53.18322 10.79246 11460 ft 313 kts 295°
2026-04-29 18:26 53.19064 10.75850 11145 ft 311 kts 295°
2026-04-29 18:26 53.19802 10.72471 10825 ft 309 kts 294°
2026-04-29 18:26 53.20534 10.69109 10524 ft 307 kts 294°
2026-04-29 18:27 53.21251 10.65807 10448 ft 299 kts 294°
2026-04-29 18:27 53.21954 10.62567 10435 ft 295 kts 294°
2026-04-29 18:27 53.22646 10.59381 10435 ft 297 kts 294°
2026-04-29 18:27 53.23350 10.56135 10436 ft 298 kts 294°
2026-04-29 18:28 53.24056 10.52877 10436 ft 299 kts 294°
2026-04-29 18:28 53.24762 10.49607 10429 ft 299 kts 294°
2026-04-29 18:28 53.25465 10.46345 10432 ft 299 kts 294°
2026-04-29 18:28 53.26167 10.43078 10437 ft 299 kts 294°
2026-04-29 18:29 53.26869 10.39808 10438 ft 299 kts 294°
2026-04-29 18:29 53.27335 10.37637 10350 ft 302 kts 294°
2026-04-29 18:29 53.28295 10.33165 9850 ft 306 kts 294°
2026-04-29 18:29 53.29006 10.29833 9536 ft 303 kts 294°
2026-04-29 18:30 53.29709 10.26534 9272 ft 299 kts 293°
2026-04-29 18:30 53.30401 10.23280 9008 ft 295 kts 293°
2026-04-29 18:30 53.31076 10.20106 8750 ft 292 kts 293°
2026-04-29 18:30 53.31751 10.16926 8490 ft 289 kts 293°
2026-04-29 18:31 53.32418 10.13778 8237 ft 286 kts 292°
2026-04-29 18:31 53.33079 10.10658 7976 ft 283 kts 292°
2026-04-29 18:31 53.33733 10.07563 7715 ft 281 kts 292°
2026-04-29 18:31 53.34380 10.04498 7473 ft 278 kts 292°
2026-04-29 18:32 53.35022 10.01456 7223 ft 276 kts 292°
2026-04-29 18:32 53.36321 9.95507 6732 ft 271 kts 299°
2026-04-29 18:32 53.37256 9.92797 6463 ft 268 kts 304°
2026-04-29 18:33 53.38247 9.90150 6126 ft 269 kts 304°
2026-04-29 18:33 53.39236 9.87555 5831 ft 264 kts 304°
2026-04-29 18:33 53.40209 9.85017 5461 ft 255 kts 305°
2026-04-29 18:33 53.41159 9.82548 5058 ft 249 kts 304°
2026-04-29 18:34 53.42087 9.80151 4679 ft 242 kts 305°
2026-04-29 18:34 53.42688 9.78599 4451 ft 238 kts 305°
2026-04-29 18:34 53.43884 9.75508 4013 ft 234 kts 304°
2026-04-29 18:34 53.44767 9.73240 3692 ft 230 kts 304°
2026-04-29 18:35 53.45783 9.71247 3350 ft 222 kts 329°
2026-04-29 18:35 53.47202 9.70664 3047 ft 205 kts 14°
2026-04-29 18:35 53.48428 9.71622 3018 ft 196 kts 36°
2026-04-29 18:35 53.49538 9.72870 2986 ft 187 kts 38°
2026-04-29 18:36 53.50526 9.74186 2982 ft 176 kts 45°
2026-04-29 18:36 53.51417 9.75576 2997 ft 174 kts 46°
2026-04-29 18:36 53.52270 9.77036 2998 ft 176 kts 50°
2026-04-29 18:36 53.53080 9.78600 2843 ft 179 kts 52°
2026-04-29 18:37 53.53869 9.80188 2593 ft 172 kts 52°
2026-04-29 18:37 53.54607 9.81687 2381 ft 160 kts 54°
2026-04-29 18:37 53.55292 9.83082 2159 ft 148 kts 53°
2026-04-29 18:37 53.55924 9.84370 1992 ft 139 kts 53°
2026-04-29 18:38 53.56532 9.85609 1798 ft 135 kts 54°
2026-04-29 18:38 53.57133 9.86834 1599 ft 135 kts 53°
2026-04-29 18:38 53.57732 9.88051 1411 ft 135 kts 53°
2026-04-29 18:38 53.58326 9.89260 1235 ft 136 kts 52°
2026-04-29 18:39 53.58927 9.90482 1039 ft 135 kts 53°
2026-04-29 18:39 53.59521 9.91689 851 ft 133 kts 51°
2026-04-29 18:39 53.60111 9.92888 675 ft 133 kts 51°
2026-04-29 18:39 53.60699 9.94081 478 ft 133 kts 52°
2026-04-29 18:40 53.61291 9.95270 306 ft 130 kts 50°
2026-04-29 18:40 53.61862 9.96435 118 ft 128 kts 51°
2026-04-29 18:40 53.62398 9.97521 46 ft 109 kts 51°
2026-04-29 18:40 53.62783 9.98307 49 ft 65 kts 50°